| time (UTC) | temp F | wind direction | speed MPH | gust MPH | rain 1hr in | rain 24hr in | rain mn in | humidity % | barometer mb |
| 20260906050017 | 75 | 68 | 4.0 | 8.0 | 0.00 | 0.00 | 0.00 | 90 | 997.1 |
| 20260906043017 | 76 | 68 | 6.0 | 13.0 | 0.00 | 0.00 | 0.00 | 90 | 996.7 |
| 20260906040017 | 76 | 68 | 6.0 | 13.0 | 0.00 | 0.00 | 0.00 | 89 | 996.4 |
| 20260906033017 | 77 | 68 | 6.0 | 13.0 | 0.00 | 0.00 | 0.00 | 89 | 996.1 |
| 20260906030018 | 78 | 68 | 7.0 | 13.0 | 0.00 | 0.00 | 0.00 | 89 | 995.9 |
| 20260906023017 | 79 | 45 | 6.0 | 11.0 | 0.00 | 0.00 | 0.00 | 89 | 995.9 |
| 20260906020017 | 80 | 45 | 7.0 | 11.0 | 0.00 | 0.00 | 0.00 | 87 | 995.5 |
| 20260906013017 | 81 | 45 | 8.0 | 15.0 | 0.00 | 0.00 | 0.00 | 86 | 995.1 |
| 20260906010037 | 83 | 45 | 7.0 | 15.0 | 0.00 | 0.00 | 0.00 | 83 | 994.8 |
| 20260906003038 | 85 | 45 | 3.0 | 6.0 | 0.00 | 0.00 | 0.00 | 81 | 994.5 |
| 20260906000017 | 87 | 45 | 4.0 | 8.0 | 0.00 | 0.00 | 0.00 | 76 | 994.6 |
| 20260905233017 | 88 | 45 | 4.0 | 11.0 | 0.00 | 0.00 | 0.00 | 73 | 994.4 |
| 20260905230037 | 90 | 45 | 4.0 | 8.0 | 0.00 | 0.00 | 0.00 | 71 | 994.2 |
| 20260905223017 | 90 | 45 | 4.0 | 8.0 | 0.00 | 0.00 | 0.00 | 71 | 994.2 |
| 20260905220037 | 90 | 45 | 5.0 | 14.0 | 0.00 | 0.00 | 0.00 | 72 | 994.0 |
| 20260905213037 | 93 | 0 | 3.0 | 9.0 | 0.00 | 0.00 | 0.00 | 66 | 994.2 |
| 20260905210037 | 92 | 0 | 3.0 | 6.0 | 0.00 | 0.00 | 0.00 | 66 | 994.6 |
| 20260905203017 | 91 | 338 | 3.0 | 5.0 | 0.00 | 0.00 | 0.00 | 68 | 994.7 |
| 20260905200017 | 92 | 338 | 3.0 | 6.0 | 0.00 | 0.00 | 0.00 | 69 | 994.9 |
| 20260905193017 | 92 | 338 | 3.0 | 7.0 | 0.00 | 0.00 | 0.00 | 66 | 995.1 |
| 20260905190019 | 92 | 315 | 3.0 | 6.0 | 0.00 | 0.00 | 0.00 | 67 | 995.3 |
| 20260905183017 | 92 | 315 | 3.0 | 8.0 | 0.00 | 0.00 | 0.00 | 65 | 995.3 |
| 20260905180017 | 92 | 338 | 4.0 | 8.0 | 0.00 | 0.00 | 0.00 | 67 | 995.4 |
| 20260905173017 | 92 | 45 | 3.0 | 7.0 | 0.00 | 0.00 | 0.00 | 67 | 995.6 |
| 20260905170019 | 91 | 315 | 5.0 | 10.0 | 0.00 | 0.00 | 0.00 | 67 | 995.8 |
| 20260905163017 | 90 | 293 | 6.0 | 12.0 | 0.00 | 0.00 | 0.00 | 67 | 996.0 |
| 20260905160017 | 90 | 293 | 5.0 | 10.0 | 0.00 | 0.00 | 0.00 | 67 | 995.8 |
| 20260905153037 | 90 | 293 | 3.0 | 10.0 | 0.00 | 0.00 | 0.00 | 66 | 995.4 |
| 20260905150017 | 89 | 248 | 2.0 | 7.0 | 0.00 | 0.00 | 0.00 | 68 | 995.4 |
| 20260905143017 | 87 | 248 | 2.0 | 4.0 | 0.00 | 0.00 | 0.00 | 72 | 995.2 |
| 20260905140018 | 85 | 293 | 3.0 | 7.0 | 0.00 | 0.00 | 0.00 | 74 | 995.3 |
| 20260905133017 | 84 | 270 | 1.0 | 7.0 | 0.00 | 0.00 | 0.00 | 75 | 995.0 |
| 20260905130018 | 81 | 270 | 1.0 | 4.0 | 0.00 | 0.00 | 0.00 | 80 | 994.8 |
| 20260905123017 | 79 | 293 | 1.0 | 5.0 | 0.00 | 0.00 | 0.00 | 81 | 994.9 |
| 20260905120018 | 78 | 225 | 1.0 | 3.0 | 0.00 | 0.00 | 0.00 | 83 | 994.6 |
| 20260905113017 | 78 | 225 | 1.0 | 3.0 | 0.00 | 0.00 | 0.00 | 82 | 994.1 |
| 20260905110017 | 78 | 225 | 2.0 | 5.0 | 0.00 | 0.00 | 0.00 | 82 | 994.0 |
| 20260905103017 | 79 | 225 | 3.0 | 5.0 | 0.00 | 0.00 | 0.00 | 82 | 994.0 |
| 20260905100018 | 78 | 225 | 1.0 | 4.0 | 0.00 | 0.00 | 0.00 | 82 | 994.1 |
| 20260905093017 | 79 | 225 | 1.0 | 3.0 | 0.00 | 0.00 | 0.00 | 82 | 994.2 |
| 20260905090019 | 80 | 225 | 2.0 | 3.0 | 0.00 | 0.00 | 0.00 | 80 | 994.2 |
| 20260905083019 | 80 | 225 | 1.0 | 2.0 | 0.00 | 0.00 | 0.00 | 80 | 994.3 |
| 20260905080017 | 80 | 225 | 2.0 | 5.0 | 0.00 | 0.00 | 0.00 | 80 | 994.3 |
| 20260905073018 | 80 | 225 | 5.0 | 7.0 | 0.00 | 0.00 | 0.00 | 82 | 994.2 |
| 20260905070017 | 81 | 225 | 5.0 | 6.0 | 0.00 | 0.00 | 0.00 | 78 | 994.4 |
| 20260905063018 | 82 | 158 | 3.0 | 5.0 | 0.00 | 0.00 | 0.00 | 79 | 994.7 |
| 20260905060018 | 79 | 158 | 1.0 | 4.0 | 0.00 | 0.00 | 0.00 | 86 | 994.7 |
| 20260905053038 | 80 | 158 | 3.0 | 6.0 | 0.00 | 0.00 | 0.00 | 84 | 994.4 |